Epoch 2006 Mar. 6.0 TT = JDT 2453800.5
T 2006 Feb. 22.18162 TT MPC
q 0.5553957 (2000.0) P Q
z +0.0003996 Peri. 351.18801 -0.84018084 -0.15537469
+/-0.0000014 Node 211.34331 -0.41647200 -0.42877896
e 0.9997781 Incl. 92.73617 -0.34734310 +0.88994792
From 552 observations 2006 Jan. 4-Sept. 7, mean residual 0".5.
Finding Charts
Magnitudes Graph
m1 = 8.6 + 5 log d + 20.0 log r [ ,-27] ( - 2006 Jan. 26)
m1 = 7.5 + 5 log d + 7.5 log r [-27, 40] (2006 Jan. 26 - 2006 Apr. 3)
m1 = 7.4 + 5 log d + 15.0 log r [ 40, 80] (2006 Apr. 3 - 2006 May 13)
m1 = 11.5 + 5 log d + 10.0 log r [ 80, ] (2006 May 13 - )
The orbital elements are published on M.P.E.C. 2013-A29.
The charts are made with StellaNavigator Ver.2.0 for Windows
(AstroArts / ASCII).
The magnitudes graphs are made with Comet for Windows.
Copyright(C) Seiichi Yoshida (comet@aerith.net). All rights reserved.